Hourly Data Report for October 04, 2016

All times are specified in Local Standard Time (LST). Add 1 hour to adjust for Daylight Saving Time where and when it is observed.

SAINT JOHN A
NEW BRUNSWICK

45°18'58.000" N
65°53'24.000" W
108.80 m
8104901
71609
YSJ

Download Data

Hourly Data (October 2016)
Hourly Data Report for October 4, 2016
Temp Definition
°C
Dew Point Temp Definition
°C
Rel Hum Definition
%
Wind Dir Definition
10's deg

Wind Spd Definition
km/h
Visibility Definition
km
Stn Press Definition
kPa
Hmdx Definition


Wind Chill Definition


Weather Definition


TIME
00:00 Legend Double Dagger -0.7 -0.7 100 2 4 24.1 101.24   -2 LegendNANA
01:00 Legend Double Dagger -1.0 -1.0 100 4 4 24.1 101.30   -2 LegendNANA
02:00 Legend Double Dagger -0.9 -0.9 100 2 5 24.1 101.34   -3 Clear
03:00 Legend Double Dagger -2.1 -2.1 100 36 3 24.1 101.40   -3 LegendNANA
04:00 Legend Double Dagger -1.2 -1.2 100 6 7 24.1 101.45   -4 LegendNANA
05:00 Legend Double Dagger -0.3 -0.3 100 9 4 24.1 101.50   -2 Mainly Clear
06:00 Legend Double Dagger -1.5 -1.5 100 6 4 24.1 101.56   -3 LegendNANA
07:00 Legend Double Dagger -0.9 -0.9 100 9 6 24.1 101.62   -3 LegendNANA
08:00 Legend Double Dagger 4.3 4.3 100 5 3 24.1 101.68     Mainly Clear
09:00 Legend Double Dagger 9.4 4.8 73 6 3 24.1 101.71     LegendNANA
10:00 Legend Double Dagger 11.2 4.2 62 14 6 24.1 101.68     LegendNANA
11:00 Legend Double Dagger 12.2 3.2 54 23 8 24.1 101.67     Mainly Clear
12:00 Legend Double Dagger 13.1 3.5 52 33 3 24.1 101.67     LegendNANA
13:00 Legend Double Dagger 14.2 5.9 57 28 11 24.1 101.62     LegendNANA
14:00 Legend Double Dagger 13.2 5.7 60 19 10 24.1 101.63     Mainly Clear
15:00 Legend Double Dagger 14.0 5.7 57 24 8 24.1 101.62     LegendNANA
16:00 Legend Double Dagger 13.9 5.1 55 21 10 24.1 101.59     LegendNANA
17:00 Legend Double Dagger 12.9 4.7 57 18 11 24.1 101.57     Clear
18:00 Legend Double Dagger 9.0 3.7 69 21 7 24.1 101.57     LegendNANA
19:00 Legend Double Dagger 4.5 4.1 97 17 5 24.1 101.59     LegendNANA
20:00 Legend Double Dagger 3.4 3.1 98 36 2 24.1 101.58     Clear
21:00 Legend Double Dagger 0.3 0.0 98 36 1 24.1 101.57     LegendNANA
22:00 Legend Double Dagger -0.8 -1.1 98 0 1 24.1 101.58   -1 LegendNANA
23:00 Legend Double Dagger -1.3 -1.3 100 3 4 24.1 101.59   -3 Clear

Notes on Data Quality.

Legend

  • E = Estimated
  • M = Missing
  • NA = Not Available
  • ‡ = Partner data that is not subject to review by the National Climate Archives
Date modified: